Temperature
22 19 19 19 20 20 21 21 21 22 22 21 20 19 19 18 18 17 16 16 15 15 15 15 15 15 15 15 15 15 15 15 15 15 15 15 15 15 15 15 15 15 15 15
19 19 20 21 22 22 22 21 21 22 22 21 20 19 18 18 17 17 16 16 15 14 14 14 15 15 15 15 15 15 15 15 15 15 15 15 14 14 14 14 14 14 14 14
20 21 22 23 22 23 22 22 22 22 22 21 20 18 18 17 17 17 16 15 15 14 14 14 14 14 14 14 14 14 14 14 14 14 14 14 14 14 13 13 13 13 13 13
20 22 23 24 23 23 22 23 23 22 20 18 19 17 17 16 16 16 15 15 14 14 14 14 14 13 13 13 13 13 13 13 14 14 14 14 13 13 13 13 13 13 13 13
21 23 23 23 24 24 23 23 22 21 19 17 17 17 16 16 16 15 15 15 14 14 14 13 13 13 13 12 13 13 13 13 13 13 13 13 13 12 12 12 12 12 12 12
22 23 24 24 24 24 23 21 20 17 16 17 17 17 16 15 16 15 15 14 13 13 13 13 12 13 12 12 12 12 12 12 12 12 12 12 12 12 12 12 12 12 12 12
21 22 23 24 23 22 21 18 17 17 16 16 17 16 15 16 16 16 14 14 13 13 12 12 12 12 12 11 11 11 11 11 11 11 11 11 11 11 11 11 11 11 11 11
20 20 22 23 23 22 21 19 17 17 17 16 16 16 15 16 15 15 14 13 12 12 12 12 12 12 11 11 10 10 10 10 11 11 10 10 10 10 10 10 10 10 10 10
19 20 22 23 23 22 21 18 17 16 16 16 16 15 15 15 15 14 13 12 12 12 12 11 11 11 11 10 10 10 10 10 10 10 10 10 10 10 10 10 10 10 9 9
20 20 20 22 21 21 20 19 16 16 16 16 16 15 15 15 14 14 13 12 12 11 11 11 11 11 10 10 9 9 9 9 9 9 9 9 9 9 9 9 9 9 9 9
19 18 19 19 19 19 19 19 17 15 15 15 15 15 16 15 14 13 13 12 11 11 11 11 10 10 10 9 9 9 9 9 9 9 9 8 8 8 8 8 8 8 8 8
18 16 17 18 19 20 19 18 17 16 16 15 15 15 16 15 14 13 13 12 12 11 11 10 10 10 9 9 9 9 9 9 8 8 8 8 8 8 8 8 8 8 8 8
18 16 16 17 17 18 18 18 17 15 14 15 15 15 14 14 13 13 12 11 11 11 10 10 10 9 9 9 9 8 8 8 8 8 8 8 8 8 7 7 7 7 7 7
18 15 16 16 16 17 18 19 18 16 15 15 16 15 14 13 13 12 12 11 11 10 10 10 9 9 9 9 8 8 8 8 8 8 8 7 7 7 7 7 7 7 7 7
16 16 17 17 18 18 18 19 19 18 17 16 15 15 14 13 12 12 11 11 11 10 10 10 9 9 9 8 8 8 8 8 8 8 7 7 7 7 7 7 7 7 7 7
15 16 16 16 18 18 18 18 18 18 17 16 15 14 13 12 12 11 11 11 10 10 10 9 9 9 9 8 8 8 8 8 7 7 7 7 7 7 7 7 7 7 7 7
15 15 15 15 17 17 16 16 17 16 16 16 15 13 12 11 11 11 11 11 10 10 10 9 9 9 8 8 8 8 8 7 7 7 7 7 7 7 7 7 7 6 6 7
15 15 13 14 15 16 16 16 17 16 15 15 14 13 12 12 11 11 11 11 11 10 10 9 9 9 8 8 8 8 8 7 7 7 7 7 7 7 6 6 6 6 6 6
15 15 14 13 14 15 16 16 16 15 14 14 13 12 12 11 11 10 11 11 11 10 10 9 9 9 8 8 8 8 7 7 7 7 7 7 7 6 6 6 6 6 6 6
14 14 14 14 15 15 15 16 16 15 13 13 13 12 11 11 10 10 10 10 10 10 9 9 9 8 8 8 8 7 7 7 7 7 7 7 7 6 6 6 6 6 6 6
15 14 14 14 14 14 15 16 16 15 14 14 13 12 12 11 11 11 10 10 10 9 9 9 8 8 8 8 8 7 7 7 7 7 7 7 6 6 6 6 6 6 6 6
14 14 14 13 14 14 15 16 15 14 14 14 13 13 12 12 11 11 10 10 9 9 9 9 8 8 8 7 7 7 7 7 7 7 7 6 6 6 6 6 6 6 6 6
14 14 12 13 13 14 16 16 16 16 14 14 13 13 13 12 11 10 10 10 9 9 9 8 8 8 7 7 7 7 7 7 7 7 7 6 6 6 6 6 6 6 6 6
15 15 13 13 14 15 15 16 16 15 15 14 14 13 12 12 11 10 10 9 9 9 8 8 8 8 7 7 7 7 7 7 7 7 7 7 6 6 6 6 7 7 7 7
15 15 13 13 14 15 15 15 15 15 14 14 13 13 12 12 11 10 10 9 9 9 8 8 8 8 7 7 7 7 7 7 7 7 7 7 7 7 7 7 7 7 7 7
14 14 13 13 14 14 15 15 15 14 14 13 13 12 12 11 11 10 10 9 9 9 8 8 8 8 7 7 7 7 7 7 7 7 7 7 7 7 7 7 7 7 7 7
Wind_Speed
2 2 5 9 8 8 5 6 7 7 4 4 8 10 10 9 12 13 12 12 12 12 10 10 10 9 9 8 8 7 6 5 3 2 2 2 2 2 3 3 5 5 5 4
4 6 12 10 8 6 6 5 5 4 0 5 7 7 6 6 10 12 14 13 14 12 11 10 9 9 8 7 7 7 6 5 5 2 1 2 2 2 3 4 6 6 5 5
8 10 8 7 8 5 4 4 4 2 3 6 8 4 4 4 8 10 11 12 13 13 12 11 10 9 8 7 7 6 6 6 5 5 3 3 3 3 3 4 4 6 7 6
7 10 6 4 4 4 4 4 3 3 5 2 4 3 2 5 6 8 9 10 11 11 11 10 10 9 8 7 6 6 6 6 6 5 5 5 4 3 3 2 3 5 8 7
6 4 3 3 5 3 4 3 5 4 5 4 5 4 2 3 6 8 10 11 11 11 11 10 9 8 8 7 6 5 6 6 6 6 6 5 5 3 3 3 4 5 5 7
6 4 2 4 2 2 5 6 7 7 6 3 2 3 2 2 6 9 11 11 11 10 11 10 9 8 7 7 6 6 6 6 6 7 7 6 6 5 5 5 4 4 3 4
7 7 4 2 5 5 7 7 5 6 5 2 2 3 2 3 4 10 12 12 11 11 11 10 9 8 7 7 6 5 6 6 6 7 7 6 6 6 6 4 4 4 4 4
3 6 5 3 1 1 1 7 7 4 3 2 2 1 2 1 3 9 12 13 12 11 10 9 8 8 7 7 6 5 6 6 6 6 6 6 6 5 4 4 4 4 3 3
1 4 5 5 3 4 2 2 6 7 3 1 0 0 1 3 6 11 13 13 12 11 11 9 8 8 7 6 5 5 6 6 5 5 5 6 6 5 4 4 4 4 4 4
3 1 5 6 7 7 4 5 6 5 4 1 1 3 4 5 7 9 11 12 11 11 11 10 8 8 7 5 5 5 5 5 4 5 4 5 5 4 4 4 5 5 5 5
4 3 5 5 4 3 5 5 5 4 5 5 2 5 5 10 10 11 12 12 12 12 11 10 8 7 6 6 5 5 4 4 4 5 5 5 5 4 5 5 5 5 5 5
3 4 1 4 4 1 4 2 4 3 1 4 4 5 3 6 8 10 12 12 11 11 11 10 9 7 6 5 5 4 4 4 4 4 4 5 5 5 5 5 5 5 5 6
3 5 3 7 7 6 3 1 2 4 3 3 3 3 2 6 7 9 11 11 11 10 10 9 8 7 6 5 5 4 4 4 4 4 5 5 5 5 5 5 5 5 5 6
4 4 4 4 5 4 4 4 2 3 3 2 3 5 3 5 8 9 10 11 11 11 10 9 7 6 6 5 5 4 4 4 4 4 5 5 4 4 4 4 5 5 5 6
5 3 1 1 3 2 2 4 4 1 4 5 4 5 7 8 9 10 10 11 12 12 11 9 8 6 6 5 4 4 4 4 4 4 4 4 4 5 5 6 6 6 6 7
5 3 4 4 4 4 5 8 5 4 3 5 6 2 3 7 7 9 10 12 12 12 11 10 8 8 7 6 5 4 4 3 4 4 3 4 4 5 5 5 6 6 6 6
3 4 3 3 5 3 5 6 4 4 3 4 3 4 8 7 9 11 10 10 11 11 10 10 9 8 7 6 5 5 4 3 4 4 4 4 4 5 5 5 6 6 5 6
3 3 3 1 4 2 2 2 4 5 4 4 6 7 8 8 7 6 7 8 10 10 10 9 8 7 6 5 5 4 4 4 4 4 4 4 4 4 4 5 5 4 4 5
4 5 3 2 1 1 3 3 1 2 2 3 8 9 7 8 7 4 5 7 9 9 9 8 8 7 7 6 6 5 5 5 5 4 4 3 4 4 4 4 4 3 4 4
5 5 4 2 2 1 4 5 2 5 2 2 7 10 10 8 5 4 6 8 8 9 9 8 8 7 7 6 6 6 5 5 4 3 3 3 4 4 3 3 2 3 3 3
3 3 2 2 1 3 5 6 2 2 4 4 7 10 9 5 5 8 10 9 9 9 9 9 9 7 6 6 6 6 5 4 3 4 4 4 4 3 3 2 2 3 3 4
3 2 1 2 1 4 6 3 2 4 2 6 7 8 8 7 10 11 12 11 10 9 9 9 8 7 5 6 7 6 5 3 4 5 4 4 3 3 3 3 3 3 3 4
2 4 4 4 4 4 1 2 2 4 5 5 7 8 10 10 10 11 10 11 9 9 8 7 8 7 5 5 7 7 4 4 5 4 4 3 4 4 3 3 3 3 3 3
3 2 4 3 1 1 3 5 4 5 6 7 9 10 10 10 12 11 11 10 9 7 8 7 8 8 6 5 6 5 4 5 5 4 3 3 3 3 4 3 3 3 2 2
2 2 3 2 2 3 3 3 6 7 9 10 9 9 10 12 12 11 10 9 9 7 6 7 8 8 7 6 5 5 5 5 4 4 3 3 3 3 3 3 2 2 0 2
1 3 4 4 5 4 3 3 7 9 8 10 10 8 9 11 11 10 9 8 8 9 7 8 8 7 7 6 5 4 4 5 5 3 3 2 2 2 2 2 2 4 1 2
Wind_Direction
289 66 255 245 228 217 238 262 266 258 235 135 142 149 159 151 143 144 139 136 129 122 114 105 96 90 82 68 62 45 41 28 39 56 64 72 68 60 55 53 52 51 47 45
5 263 244 246 259 252 245 259 267 285 170 130 131 130 145 153 151 147 144 139 134 128 120 109 99 88 78 66 62 46 43 39 34 35 36 69 80 71 67 50 40 36 34 35
220 247 250 235 245 251 261 219 229 205 63 65 107 66 116 127 113 126 132 131 133 133 124 113 102 91 83 69 58 59 42 38 33 30 48 61 53 45 46 42 30 23 31 34
244 256 258 243 242 205 259 247 159 114 100 36 96 143 186 145 122 135 136 134 132 125 117 112 107 98 89 81 69 58 48 43 35 39 58 70 74 66 43 40 34 22 30 32
275 286 279 263 249 195 211 141 109 100 106 74 30 113 244 131 147 160 153 144 136 131 126 116 109 103 94 84 72 59 54 49 41 42 49 60 59 55 49 46 39 27 20 26
267 277 241 242 261 143 120 76 54 53 69 65 301 119 236 210 187 165 151 140 133 127 119 114 107 100 89 76 64 55 55 49 43 47 47 55 58 56 56 47 36 23 15 13
331 324 319 4 33 21 73 84 39 15 23 273 290 100 243 253 176 157 148 139 132 120 116 116 109 103 95 83 72 62 62 54 44 48 44 44 51 55 54 44 40 30 20 13
11 317 322 357 120 165 98 126 147 177 202 275 7 103 266 338 112 131 133 130 129 122 118 118 115 109 103 95 85 71 64 55 50 51 46 42 45 49 46 42 43 34 21 7
108 296 332 4 27 109 82 90 152 131 125 97 345 271 294 87 101 126 131 129 131 130 125 120 114 106 103 98 86 77 73 61 55 55 54 45 42 46 44 38 34 28 15 14
113 340 332 342 25 29 113 135 84 99 133 170 291 239 223 191 170 147 141 140 135 130 125 120 113 108 102 100 94 84 82 75 59 50 49 56 42 40 39 39 34 28 17 21
79 84 339 10 26 353 28 43 87 110 139 145 208 257 228 196 180 166 157 148 139 136 128 123 119 112 108 103 98 91 86 76 62 54 51 47 36 31 34 36 31 30 25 25
54 100 354 294 284 51 102 106 116 123 198 148 167 257 292 176 160 155 146 141 137 133 129 128 124 118 112 108 104 99 91 83 74 64 57 48 36 36 36 35 27 28 28 27
84 91 43 351 348 3 33 39 113 129 128 153 160 236 31 121 133 140 137 137 135 134 132 129 127 125 123 116 108 103 94 89 80 73 63 51 43 40 37 36 31 32 32 33
99 87 138 187 245 284 321 334 24 111 138 184 188 176 176 148 146 143 139 136 136 135 135 133 130 127 128 122 116 109 95 92 88 81 74 60 47 41 38 40 41 40 41 45
81 80 33 287 289 315 348 344 2 41 166 166 178 170 190 175 160 154 146 142 142 142 142 142 141 137 133 125 114 106 99 96 95 86 74 60 52 49 47 47 45 46 48 50
63 80 30 344 334 355 17 8 17 41 67 116 122 140 149 138 139 145 148 150 151 151 149 147 145 139 137 131 124 112 104 104 97 90 78 68 68 60 54 53 51 53 51 48
60 84 64 317 318 18 18 352 22 52 57 134 164 177 143 138 148 156 158 158 157 154 152 149 145 141 140 135 129 121 117 105 95 88 81 80 79 71 62 66 58 53 52 54
127 101 113 2 15 41 264 343 71 89 50 85 116 137 152 151 143 139 143 146 149 150 148 146 140 136 134 128 123 118 112 103 97 90 87 89 82 76 69 65 59 54 55 57
145 131 103 91 52 300 319 330 336 113 55 103 125 133 128 118 105 101 131 136 143 147 146 144 141 137 134 133 129 119 108 101 96 96 99 101 98 89 77 68 62 59 66 58
77 92 103 96 94 241 273 303 312 98 82 180 144 145 144 132 143 178 153 130 128 131 135 136 134 126 130 133 124 117 112 106 109 114 109 105 100 99 92 85 76 65 73 68
57 51 93 133 166 265 283 304 6 110 227 176 156 156 158 169 172 150 138 128 130 132 134 134 130 131 139 134 120 120 121 123 128 113 101 91 93 102 99 81 72 81 76 68
140 123 121 122 130 263 304 6 105 200 177 142 146 152 148 130 122 128 132 133 133 130 130 132 131 132 133 129 123 122 129 133 111 99 92 89 88 87 85 73 57 64 80 73
106 172 167 165 200 237 302 103 138 135 122 130 140 143 137 129 131 132 134 137 138 137 136 134 134 131 133 135 131 134 148 133 112 101 97 90 79 66 68 75 70 62 71 81
347 77 103 94 118 97 82 85 88 106 117 124 134 137 136 134 138 136 140 142 142 141 140 138 136 137 143 142 138 148 150 130 119 119 118 106 90 69 54 58 68 86 87 97
279 65 82 98 152 78 48 100 113 104 108 116 120 127 137 137 141 143 145 146 146 143 141 141 144 147 151 150 149 156 150 135 128 130 129 120 113 111 82 65 57 97 118 179
262 151 148 197 208 166 196 162 128 126 131 134 128 123 131 140 143 142 147 149 147 146 143 142 146 148 153 152 156 164 157 144 140 142 145 146 151 145 132 111 45 23 37 30
Height
1502 1507 1512 1507 1505 1507 1508 1511 1512 1505 1498 1503 1511 1516 1518 1519 1521 1524 1528 1530 1532 1535 1537 1538 1540 1542 1542 1542 1542 1542 1542 1543 1544 1544 1544 1543 1543 1543 1543 1542 1542 1541 1541 1540
1508 1510 1500 1498 1499 1501 1505 1510 1509 1503 1497 1503 1513 1519 1520 1521 1522 1524 1528 1531 1532 1535 1537 1539 1540 1542 1543 1543 1542 1542 1542 1543 1543 1542 1542 1542 1542 1541 1541 1541 1540 1540 1539 1539
1510 1501 1493 1496 1499 1501 1502 1506 1505 1504 1502 1504 1513 1527 1525 1525 1526 1528 1529 1531 1533 1535 1537 1539 1541 1542 1543 1543 1544 1543 1543 1543 1543 1542 1542 1541 1541 1540 1540 1539 1539 1538 1538 1537
1502 1493 1492 1494 1495 1496 1505 1495 1496 1500 1511 1523 1519 1539 1533 1528 1529 1530 1532 1533 1535 1536 1538 1540 1541 1543 1544 1545 1545 1544 1544 1544 1543 1543 1542 1541 1539 1539 1538 1538 1538 1537 1536 1535
1500 1492 1492 1494 1491 1490 1495 1491 1496 1501 1513 1526 1527 1536 1539 1531 1532 1532 1532 1534 1536 1538 1539 1541 1543 1544 1545 1545 1545 1545 1545 1544 1543 1542 1542 1540 1539 1539 1538 1538 1537 1536 1535 1534
1493 1488 1488 1488 1485 1486 1489 1496 1503 1512 1522 1539 1534 1537 1541 1534 1530 1530 1532 1535 1537 1539 1540 1542 1543 1545 1546 1546 1546 1546 1545 1544 1543 1542 1542 1541 1539 1538 1538 1537 1536 1535 1534 1533
1499 1491 1487 1485 1489 1491 1494 1512 1531 1536 1545 1544 1532 1536 1538 1528 1525 1527 1531 1535 1539 1540 1541 1542 1544 1545 1546 1546 1547 1547 1546 1545 1544 1543 1542 1541 1540 1539 1537 1536 1535 1534 1533 1531
1511 1509 1493 1488 1491 1497 1499 1509 1532 1543 1547 1545 1535 1538 1534 1526 1525 1527 1530 1534 1537 1540 1542 1544 1546 1546 1547 1547 1547 1547 1546 1545 1544 1543 1542 1541 1540 1539 1537 1536 1535 1533 1532 1531
1511 1509 1493 1489 1488 1491 1502 1510 1513 1529 1536 1545 1542 1537 1531 1527 1528 1529 1532 1535 1537 1540 1542 1544 1546 1547 1548 1549 1548 1548 1547 1546 1545 1544 1543 1541 1540 1539 1538 1536 1535 1533 1531 1530
1502 1508 1499 1493 1491 1493 1498 1504 1518 1530 1543 1548 1543 1540 1536 1529 1529 1530 1533 1535 1537 1540 1542 1544 1546 1548 1549 1549 1549 1549 1548 1547 1546 1545 1543 1542 1541 1539 1538 1536 1534 1533 1532 1531
1500 1510 1509 1503 1505 1506 1504 1508 1517 1528 1533 1545 1550 1543 1521 1521 1523 1527 1530 1533 1535 1539 1541 1544 1547 1548 1549 1550 1550 1550 1549 1548 1547 1546 1544 1543 1542 1540 1538 1536 1535 1534 1533 1531
1503 1513 1518 1511 1503 1500 1503 1509 1516 1529 1532 1535 1542 1540 1517 1517 1520 1524 1528 1532 1535 1538 1541 1544 1546 1548 1550 1550 1550 1550 1550 1549 1548 1547 1545 1544 1542 1541 1539 1538 1536 1535 1534 1533
1504 1516 1527 1524 1518 1509 1507 1507 1511 1519 1529 1534 1539 1536 1521 1520 1523 1525 1529 1533 1536 1539 1542 1545 1547 1548 1550 1550 1551 1551 1550 1549 1548 1547 1546 1545 1544 1543 1541 1540 1538 1537 1536 1534
1502 1516 1526 1531 1526 1516 1513 1509 1508 1515 1529 1530 1527 1527 1525 1523 1525 1528 1530 1533 1537 1540 1542 1545 1547 1549 1551 1551 1551 1551 1551 1550 1550 1549 1548 1547 1546 1545 1543 1542 1540 1539 1538 1537
1505 1517 1515 1516 1512 1511 1511 1509 1507 1510 1514 1522 1522 1522 1522 1522 1524 1527 1530 1534 1537 1540 1542 1545 1547 1549 1551 1551 1552 1552 1552 1551 1551 1550 1549 1548 1548 1547 1545 1544 1542 1541 1540 1539
1509 1516 1517 1518 1512 1510 1512 1510 1508 1509 1511 1516 1519 1523 1520 1523 1525 1528 1531 1533 1536 1539 1542 1545 1547 1549 1550 1551 1552 1552 1552 1552 1552 1552 1551 1550 1549 1548 1547 1546 1545 1544 1543 1542
1513 1518 1524 1526 1516 1514 1523 1517 1514 1514 1513 1515 1520 1522 1522 1525 1526 1528 1531 1533 1535 1539 1541 1544 1546 1549 1550 1552 1553 1553 1554 1554 1554 1553 1553 1552 1551 1550 1549 1548 1548 1547 1545 1545
1514 1519 1527 1529 1525 1532 1526 1515 1514 1516 1517 1515 1516 1520 1522 1524 1528 1529 1531 1534 1536 1539 1542 1544 1547 1549 1551 1552 1554 1555 1555 1555 1555 1555 1554 1554 1553 1553 1552 1551 1550 1549 1548 1547
1509 1517 1525 1532 1533 1530 1522 1516 1516 1518 1522 1519 1519 1522 1525 1527 1530 1533 1534 1535 1536 1539 1542 1545 1547 1550 1552 1553 1554 1555 1556 1556 1556 1556 1556 1556 1555 1555 1554 1553 1553 1552 1551 1550
1511 1515 1525 1530 1533 1535 1526 1515 1513 1517 1526 1521 1520 1522 1525 1527 1532 1534 1534 1536 1538 1540 1543 1546 1548 1551 1553 1554 1556 1556 1557 1558 1558 1558 1558 1558 1557 1557 1556 1556 1555 1555 1554 1554
1520 1522 1527 1530 1533 1529 1519 1514 1513 1525 1525 1520 1520 1521 1524 1525 1527 1530 1533 1536 1539 1542 1544 1547 1549 1552 1553 1555 1556 1557 1558 1559 1560 1560 1560 1560 1559 1559 1559 1558 1558 1558 1557 1557
1522 1526 1528 1530 1534 1532 1516 1514 1518 1520 1516 1518 1519 1521 1523 1524 1527 1530 1533 1537 1540 1543 1546 1548 1551 1553 1554 1556 1557 1558 1559 1560 1561 1561 1562 1562 1561 1561 1561 1561 1560 1560 1560 1559
1518 1520 1523 1526 1529 1521 1517 1516 1516 1516 1517 1518 1520 1522 1524 1525 1528 1532 1535 1538 1542 1544 1547 1549 1552 1554 1556 1557 1559 1559 1561 1562 1562 1563 1563 1563 1563 1563 1563 1563 1563 1562 1562 1562
1517 1515 1519 1522 1521 1519 1518 1517 1517 1517 1518 1519 1521 1523 1525 1527 1530 1533 1537 1540 1543 1546 1548 1550 1553 1554 1556 1558 1560 1561 1562 1563 1564 1564 1565 1565 1565 1565 1565 1565 1565 1564 1564 1564
1517 1516 1520 1521 1520 1520 1519 1519 1519 1519 1520 1522 1523 1525 1526 1528 1531 1534 1537 1541 1543 1546 1549 1551 1553 1555 1557 1559 1561 1562 1563 1564 1565 1565 1566 1566 1567 1567 1567 1567 1566 1567 1566 1566
1516 1517 1520 1522 1519 1519 1520 1520 1520 1520 1522 1523 1525 1527 1529 1530 1533 1536 1538 1541 1544 1547 1549 1552 1554 1556 1558 1560 1562 1563 1564 1565 1566 1567 1567 1568 1568 1569 1569 1568 1568 1568 1568 1568